Temperature
19 20 20 20 24 24 22 22 23 23 22 21 20 20 18 17 17 15 11 12 13 14 14 14 15 15 15 15 15 15 15 15 15 15 15 15 16 16 16 16 16 16 16 16 16 16 16 16 16
20 20 20 22 25 23 21 22 22 21 20 20 19 18 16 13 10 9 10 12 13 14 14 14 14 15 15 15 14 14 14 14 14 15 15 15 15 16 16 16 16 16 16 16 16 16 16 16 16
20 20 21 24 23 22 21 21 21 20 18 19 17 14 11 9 7 7 8 11 13 14 14 14 14 14 14 15 15 14 14 14 14 14 14 15 15 15 15 15 15 16 16 16 16 16 16 16 16
20 21 23 24 21 20 19 19 19 21 18 16 17 13 9 6 6 7 8 10 12 13 13 14 14 14 14 14 14 14 14 14 14 14 14 14 14 14 15 15 15 15 15 15 15 15 15 16 16
21 23 23 22 20 19 16 15 15 17 15 14 15 12 9 7 7 8 9 10 12 13 13 13 14 14 14 14 14 14 14 14 14 14 14 14 14 14 14 14 14 14 15 15 15 15 15 15 15
21 24 23 21 20 19 16 13 15 13 13 12 14 12 9 7 8 8 9 10 11 12 12 12 13 13 13 13 13 13 13 13 13 14 14 14 14 14 14 14 14 14 14 14 15 15 15 15 15
22 23 22 21 20 17 16 12 12 12 11 10 11 12 10 8 7 8 8 9 11 11 12 12 12 12 12 12 12 12 12 13 13 13 13 13 13 14 14 14 14 14 14 14 14 14 14 15 15
20 23 21 21 19 15 13 11 10 10 9 9 9 10 8 7 7 7 8 10 10 11 11 11 11 11 12 12 12 12 12 12 12 12 13 13 13 13 13 13 13 13 14 14 14 14 14 14 14
21 22 20 20 18 15 13 12 10 9 8 8 7 7 6 6 7 8 9 10 10 10 10 10 10 11 11 11 11 12 12 12 12 12 12 12 12 13 13 13 13 13 13 13 13 14 14 14 14
21 20 18 17 16 13 12 11 10 10 9 8 7 6 6 6 7 8 8 7 8 8 9 9 10 10 10 10 11 11 11 11 11 11 12 12 12 12 12 12 12 13 13 13 13 13 13 13 13
18 18 15 13 12 11 10 9 9 10 8 7 6 6 6 6 6 6 6 6 6 7 8 8 9 9 10 10 10 10 10 11 11 11 11 11 11 12 12 12 12 12 13 13 13 13 13 13 13
14 13 14 13 11 11 10 9 7 7 6 5 5 5 5 5 5 5 5 6 6 7 8 8 8 9 9 9 9 9 9 9 10 10 10 11 11 11 11 11 11 11 12 12 12 13 13 13 13
14 11 10 9 9 8 8 7 7 6 6 5 5 5 5 5 4 4 4 5 5 6 7 7 7 7 7 8 8 7 7 7 7 8 8 9 9 9 10 10 10 10 11 11 12 12 12 12 12
13 12 11 10 9 8 8 8 7 6 6 5 5 5 4 4 3 4 4 4 4 4 5 5 5 6 6 6 6 5 5 5 4 4 4 5 6 7 7 8 8 9 10 10 11 11 11 12 12
13 13 12 11 10 10 9 8 6 5 6 6 5 5 4 3 3 2 2 2 2 3 3 3 3 4 4 4 4 4 3 3 2 2 2 2 3 4 5 5 6 6 7 8 9 10 10 11 11
17 17 15 12 11 10 11 7 6 5 6 6 5 5 4 3 3 2 1 2 2 2 2 2 2 2 2 2 2 2 1 1 1 1 1 1 2 2 3 3 4 4 5 6 6 7 8 9 10
19 19 16 12 10 10 11 7 5 5 6 6 5 5 4 3 2 2 1 1 1 1 1 1 1 1 1 1 1 1 -0 -0 -0 -0 -0 0 1 1 1 2 2 3 3 4 4 5 6 7 8
19 18 16 13 10 10 9 7 5 5 5 6 5 5 4 3 2 1 1 0 0 0 -0 -0 -0 -0 -0 0 0 -0 -1 -1 -1 -1 -1 -1 -0 -0 0 0 1 2 2 2 3 3 4 5 6
17 17 15 11 9 9 8 6 6 5 5 5 5 4 4 3 2 1 -0 -1 -1 -1 -1 -1 -1 -2 -2 -2 -2 -2 -2 -2 -3 -2 -1 -1 -1 -2 -2 -2 -1 -0 -0 1 1 2 3 4 5
17 16 13 9 8 8 7 6 6 5 5 4 4 4 3 2 2 0 -1 -2 -3 -3 -3 -3 -3 -4 -4 -4 -4 -4 -4 -4 -4 -4 -3 -2 -2 -3 -4 -4 -4 -3 -3 -1 -1 0 1 2 3
16 16 15 11 8 8 7 6 6 5 5 4 4 3 3 2 1 -0 -1 -3 -3 -4 -4 -4 -4 -5 -5 -5 -5 -5 -5 -5 -5 -5 -4 -4 -4 -4 -5 -5 -5 -5 -4 -4 -3 -2 -2 -1 2
16 13 13 11 10 10 9 12 7 6 6 5 5 4 3 1 0 -1 -2 -3 -4 -5 -5 -5 -6 -6 -6 -6 -7 -7 -7 -7 -7 -7 -7 -6 -5 -5 -6 -6 -6 -5 -5 -5 -4 -3 -3 -2 -1
14 11 11 11 12 11 10 10 10 6 6 6 5 4 3 1 -0 -2 -3 -4 -5 -6 -6 -6 -6 -7 -7 -7 -8 -8 -8 -8 -8 -8 -7 -7 -6 -6 -6 -6 -6 -6 -5 -5 -4 -3 -3 -3 -2
11 12 11 11 12 13 12 11 11 7 6 5 5 4 3 1 -1 -2 -3 -5 -6 -6 -7 -7 -7 -8 -8 -8 -8 -9 -9 -9 -9 -9 -8 -8 -8 -7 -7 -7 -7 -6 -6 -5 -4 -3 -3 -3 -2
14 15 17 16 16 15 10 11 10 6 5 4 4 3 2 0 -1 -3 -4 -5 -6 -7 -8 -8 -8 -8 -8 -9 -9 -9 -10 -10 -10 -10 -10 -9 -9 -9 -8 -8 -7 -7 -6 -5 -4 -4 -3 -2 -2
13 14 15 15 16 15 11 11 7 6 4 4 3 2 1 -0 -2 -3 -5 -6 -7 -8 -8 -9 -9 -9 -10 -10 -10 -10 -10 -11 -11 -11 -11 -10 -10 -10 -9 -9 -8 -7 -6 -5 -5 -4 -3 -2 -2
13 13 12 13 13 12 13 8 5 5 5 4 3 2 1 -1 -3 -4 -5 -6 -7 -8 -8 -9 -10 -10 -10 -11 -11 -11 -11 -11 -12 -12 -11 -11 -11 -10 -9 -9 -8 -7 -7 -6 -6 -5 -4 -3 -2
11 11 12 13 13 14 14 11 9 5 5 4 3 2 0 -2 -3 -4 -5 -6 -7 -8 -9 -9 -10 -10 -11 -11 -11 -12 -12 -12 -12 -12 -12 -12 -11 -11 -10 -9 -8 -8 -7 -6 -6 -6 -5 -4 -3
11 11 11 11 11 12 12 12 6 5 4 3 3 1 -1 -2 -4 -5 -6 -7 -8 -9 -9 -9 -10 -10 -11 -11 -11 -12 -12 -12 -13 -13 -13 -13 -12 -12 -11 -10 -9 -8 -8 -7 -7 -6 -6 -5 -4
10 10 11 12 12 10 10 10 5 4 3 3 2 0 -1 -3 -4 -5 -6 -7 -8 -9 -10 -10 -10 -11 -11 -12 -12 -12 -13 -13 -13 -13 -13 -13 -13 -12 -12 -11 -9 -8 -8 -7 -7 -7 -7 -6 -5
Wind_Speed
10 6 3 2 5 11 14 9 10 14 12 15 17 16 18 16 10 7 15 27 26 22 22 24 22 17 14 14 13 13 12 13 13 13 12 12 12 12 12 11 10 10 10 9 10 10 8 7 7
7 4 2 1 11 16 13 10 13 12 9 7 13 17 17 16 12 9 17 25 24 24 26 31 32 28 23 19 16 15 14 14 13 13 13 13 12 12 13 12 12 12 11 11 11 12 10 9 8
3 2 2 6 14 14 11 11 9 12 19 13 10 13 9 10 11 12 18 21 20 23 25 30 33 34 34 31 26 22 19 18 17 15 15 15 15 14 14 14 13 12 12 11 11 12 12 11 9
2 1 5 15 22 16 13 14 10 6 14 18 11 11 9 10 10 14 16 18 19 23 25 30 34 34 34 34 34 33 30 26 23 20 18 18 17 16 15 16 15 13 12 11 10 9 10 10 10
0 6 13 18 18 14 18 19 20 16 8 15 16 12 8 11 12 12 14 20 22 24 27 30 34 34 34 34 33 32 32 31 30 29 26 22 18 18 17 16 15 14 13 12 10 8 8 7 8
3 5 13 16 15 13 14 19 14 21 14 11 10 10 9 13 15 15 17 21 25 26 28 29 33 33 32 34 34 33 32 31 30 30 29 27 23 20 18 16 15 15 14 13 11 10 9 7 7
6 8 13 15 12 10 9 10 19 13 18 14 7 7 6 18 15 14 17 21 25 28 28 29 30 30 30 30 32 32 32 32 31 31 31 28 25 23 21 17 16 16 15 14 13 12 11 9 8
4 7 10 10 9 6 5 7 12 17 15 12 12 8 8 16 14 14 16 21 24 27 28 29 29 30 28 27 29 29 29 31 30 30 31 28 25 23 22 20 20 19 18 15 14 13 13 11 10
3 8 9 6 7 7 6 7 10 14 18 21 19 17 13 13 14 17 20 23 24 24 26 27 28 29 28 25 25 25 25 27 28 27 30 26 22 21 20 21 21 21 20 17 16 15 14 13 13
7 7 7 6 9 13 15 14 10 11 18 19 19 17 15 15 18 22 24 24 25 25 24 26 27 28 27 24 23 21 21 22 23 24 26 24 22 20 21 21 21 21 20 18 15 16 16 15 13
8 9 9 13 16 16 14 15 12 9 14 15 15 15 16 19 21 22 22 22 21 21 22 24 25 26 25 22 21 19 18 19 20 22 24 23 21 20 20 18 18 18 17 15 15 13 12 13 12
11 13 10 10 11 12 13 12 15 18 12 12 13 14 17 20 21 21 20 20 20 21 22 23 25 25 25 23 20 19 18 18 18 19 21 21 17 18 19 17 18 16 14 14 13 10 12 12 14
13 14 21 25 26 25 25 21 18 16 13 12 13 16 18 19 19 18 18 19 20 21 22 22 25 25 25 22 20 19 19 19 19 18 19 21 17 16 17 17 17 18 17 15 13 11 11 11 10
16 21 19 16 17 14 19 15 10 11 10 12 14 16 17 18 18 19 20 21 21 21 21 21 24 25 24 22 21 19 20 20 19 18 20 21 20 18 17 16 16 16 18 18 16 14 12 10 9
23 20 15 10 10 10 12 14 11 8 9 12 14 14 15 16 17 18 19 19 19 19 20 20 22 24 24 23 22 20 19 20 19 19 20 21 22 21 20 15 14 15 19 19 16 16 13 11 10
8 8 6 5 3 3 2 8 8 6 9 12 12 12 13 14 16 16 18 18 19 19 20 19 21 23 23 22 22 20 20 20 18 19 19 21 23 22 20 15 13 17 17 15 13 13 13 12 11
5 3 6 5 5 2 5 9 8 5 8 11 11 12 13 14 16 17 18 19 20 20 20 20 21 22 23 22 21 20 20 19 18 18 18 21 22 22 20 16 16 19 15 12 12 13 13 14 13
3 4 4 4 5 6 9 13 9 6 8 10 11 12 13 14 15 16 18 19 19 19 20 21 21 22 23 21 20 17 18 18 18 18 19 21 20 22 20 16 18 18 13 12 13 15 14 13 14
4 5 5 4 4 6 12 14 9 6 7 9 11 12 14 14 14 15 17 19 19 19 20 21 22 21 19 17 17 17 17 16 15 18 22 22 22 22 20 16 16 16 14 15 16 14 15 13 12
6 5 4 6 5 5 11 9 7 5 7 8 10 12 14 15 16 16 17 18 18 18 19 20 21 20 19 17 16 15 16 14 16 19 21 22 24 23 20 18 15 15 15 17 16 15 12 12 10
2 2 2 6 6 6 8 8 9 6 3 5 8 10 13 15 16 16 17 18 18 18 19 18 20 20 19 21 17 15 14 14 15 17 15 22 25 23 22 20 18 16 15 15 17 16 15 13 13
1 2 2 9 8 4 9 5 11 9 3 4 8 12 14 15 15 15 16 18 18 17 16 18 19 19 19 20 17 19 16 16 18 16 16 22 23 23 22 21 21 17 15 16 16 15 14 14 13
4 3 2 8 6 3 7 7 5 8 5 4 9 12 14 15 14 15 15 16 16 17 16 17 18 18 19 20 19 18 17 16 16 18 20 19 20 21 22 22 21 18 15 17 17 17 15 12 13
2 2 4 5 5 5 4 7 3 5 1 5 10 13 15 15 14 13 14 14 15 16 15 16 18 18 19 19 19 19 20 21 21 21 20 18 16 17 21 23 21 20 16 17 18 17 17 14 14
4 4 4 3 4 2 3 5 0 8 4 6 11 14 15 14 13 13 14 15 16 17 17 17 18 19 20 20 20 20 20 20 20 20 20 20 17 17 20 21 19 18 18 18 17 17 17 15 15
5 6 5 6 7 5 3 3 5 6 3 6 10 13 14 14 13 13 14 14 15 17 17 18 19 19 20 20 20 19 19 16 16 19 19 18 16 17 21 22 21 21 21 18 17 15 16 15 15
2 2 3 4 6 7 5 2 5 4 3 8 12 14 15 13 12 13 14 14 16 17 17 18 19 19 19 20 20 19 19 18 19 19 18 17 17 19 22 22 20 20 20 18 18 14 16 16 15
3 1 2 4 7 8 7 4 2 3 4 10 13 15 15 12 11 13 13 14 15 16 16 17 18 18 18 19 18 16 18 18 18 18 20 20 21 22 22 21 20 20 19 18 17 16 16 16 15
1 1 0 2 4 6 9 3 6 3 5 10 13 15 14 12 12 14 13 14 15 15 16 16 17 18 18 18 18 18 18 18 18 18 19 20 20 21 21 21 21 20 19 18 16 16 17 16 16
1 1 2 5 5 5 7 2 8 4 6 9 13 14 12 11 12 14 14 14 15 16 16 17 17 17 17 17 18 18 18 18 19 19 19 20 20 20 20 20 20 20 20 19 17 17 16 15 15
Wind_Direction
324 322 290 242 125 93 83 63 77 77 70 63 67 72 70 53 38 55 352 350 354 6 12 12 7 356 349 345 341 338 336 333 333 335 334 330 325 321 320 319 321 321 314 300 289 281 271 262 255
324 308 261 269 111 98 82 69 66 52 40 86 66 62 60 47 27 13 350 342 358 14 20 19 20 17 8 356 345 339 335 327 320 317 315 311 308 307 308 309 310 314 315 305 290 280 272 260 253
295 298 45 76 82 82 76 40 44 70 49 47 68 51 48 21 7 353 342 344 7 22 23 22 24 26 26 21 13 360 346 334 325 315 308 305 298 296 297 298 297 300 304 303 294 282 271 260 246
274 86 78 88 79 59 45 27 23 83 48 27 73 65 70 29 0 345 345 0 21 28 28 27 28 29 28 27 26 24 18 8 355 340 325 316 305 297 298 298 291 290 291 292 291 285 273 259 246
352 90 95 91 84 70 50 37 46 54 55 32 68 81 63 20 8 1 8 19 28 29 28 28 28 27 28 27 25 24 22 20 18 12 1 346 324 309 306 304 297 289 284 280 280 282 276 263 247
82 95 100 93 91 75 54 31 44 51 54 37 62 85 61 18 11 15 21 27 31 30 27 26 25 24 24 25 24 24 22 20 17 14 8 4 355 339 324 313 308 302 290 279 273 274 274 267 252
82 80 93 101 92 63 37 42 36 46 46 36 26 79 60 19 13 20 27 31 32 29 27 24 21 18 18 19 19 18 18 17 16 14 10 5 3 359 352 339 324 315 303 287 278 274 271 267 258
58 97 97 89 87 77 62 68 51 42 49 41 40 62 36 13 18 26 33 34 31 27 25 20 18 15 12 11 13 12 13 13 11 11 8 4 1 360 357 357 350 337 322 302 284 276 273 268 261
54 91 87 79 105 112 105 89 71 67 71 65 60 59 46 30 32 34 34 31 27 24 20 17 14 11 8 6 5 5 7 8 7 6 3 1 359 357 352 352 351 351 343 324 296 278 273 271 256
56 87 67 51 104 111 88 81 97 78 61 59 57 54 48 42 38 36 32 26 22 18 14 13 11 8 4 1 360 360 1 1 3 3 1 357 354 352 350 345 348 347 345 336 319 292 271 259 253
65 80 91 79 94 105 96 74 65 94 58 52 53 50 43 41 38 35 31 25 20 14 13 9 7 5 3 358 356 354 353 354 355 359 359 356 353 350 349 345 344 343 343 342 334 321 287 265 258
86 58 92 96 87 91 95 93 72 68 79 72 64 55 47 42 38 31 26 20 15 13 10 6 4 3 0 357 354 351 350 349 349 351 355 355 351 348 347 342 339 338 338 335 330 322 310 289 267
90 86 82 90 89 89 91 89 87 79 82 78 68 58 49 43 37 32 24 19 14 10 6 4 1 1 358 355 352 350 348 347 344 345 349 352 348 345 343 337 336 334 335 332 326 318 312 301 287
112 112 108 101 97 89 90 86 80 80 85 77 65 56 48 42 33 27 20 14 10 6 2 0 359 359 356 355 352 348 346 344 342 343 345 348 346 342 338 333 332 331 333 328 321 314 306 294 283
120 113 111 113 112 125 94 73 76 86 87 74 62 55 48 39 33 27 19 12 6 2 359 0 357 356 356 354 351 347 345 343 341 341 342 346 345 341 337 330 327 330 329 324 321 316 310 298 287
142 142 118 92 102 141 145 100 89 85 85 71 58 50 43 38 31 24 18 11 6 1 360 359 358 355 356 354 349 346 344 342 340 340 341 345 343 343 337 330 328 330 326 322 320 317 315 305 292
194 176 132 114 49 104 118 127 116 94 83 69 55 44 36 30 25 20 15 10 5 2 359 358 357 355 354 352 347 345 343 342 340 341 342 342 341 341 337 330 330 331 327 323 321 319 315 307 297
164 152 128 115 65 97 120 130 125 99 77 65 50 38 29 24 19 14 10 7 4 1 359 356 354 354 353 351 347 345 343 342 340 341 340 339 338 338 335 330 331 331 327 326 324 319 314 305 296
91 118 118 102 105 105 129 135 131 113 75 55 41 29 20 14 11 9 6 4 0 360 359 357 354 353 354 352 347 344 341 339 339 339 336 336 335 335 333 330 329 329 325 322 319 320 316 311 306
111 119 124 117 116 123 145 146 143 115 72 49 33 22 13 3 1 1 1 0 358 358 358 355 353 349 352 350 343 339 334 334 336 336 334 334 334 333 332 331 329 326 322 318 319 319 314 308 307
122 328 243 169 129 143 159 185 190 163 105 56 35 21 12 3 355 354 356 358 357 357 357 353 351 348 349 347 343 340 338 338 341 340 336 334 331 329 328 328 328 324 321 315 314 311 307 307 304
233 1 262 171 179 190 208 258 186 189 181 29 19 12 4 359 353 353 355 356 355 353 352 350 348 348 348 347 346 344 342 341 338 335 331 331 330 328 327 328 327 323 319 313 309 305 301 297 293
347 356 195 191 214 215 211 259 166 181 226 349 3 0 356 355 352 352 356 353 352 350 349 347 347 348 349 348 347 344 340 338 334 334 333 333 331 329 328 329 326 322 318 312 309 304 295 288 282
306 161 128 164 209 251 207 231 198 175 224 353 355 351 351 352 349 348 350 350 350 349 348 347 347 349 350 348 347 344 340 338 335 336 335 334 331 329 329 329 325 321 318 314 311 306 295 285 276
1 320 297 277 250 265 135 237 72 124 71 6 347 344 346 346 344 344 347 348 349 348 347 346 347 347 349 347 346 343 341 337 335 335 333 332 330 329 328 327 323 320 318 315 315 313 303 292 282
12 354 354 314 306 307 210 264 134 140 61 359 347 343 342 343 344 343 346 345 345 346 346 347 346 346 346 346 344 342 342 338 334 333 331 329 327 325 325 324 321 319 319 318 319 320 316 308 295
332 28 353 283 283 279 253 147 156 195 319 346 346 347 347 343 341 342 343 344 345 346 347 346 344 344 344 344 342 341 341 339 335 332 331 329 327 325 326 324 322 321 322 321 322 323 323 318 308
35 94 261 304 318 308 297 257 187 156 346 347 348 348 347 345 343 343 344 345 346 345 345 345 345 343 342 342 342 339 339 339 336 333 333 331 329 327 326 327 325 323 323 324 323 325 327 327 322
149 132 69 290 285 294 306 343 107 93 7 349 348 349 348 347 347 346 346 345 344 344 344 344 344 343 343 343 341 340 340 339 338 337 334 332 330 329 329 328 327 325 326 327 322 328 333 333 332
293 220 243 295 291 257 282 311 122 68 5 351 347 352 351 349 347 345 344 343 343 343 344 343 343 342 341 341 339 340 340 341 340 338 336 335 333 332 330 330 328 328 330 330 323 328 337 339 338
Height
1537 1536 1536 1537 1536 1538 1549 1554 1551 1551 1554 1560 1559 1560 1566 1572 1576 1587 1590 1582 1579 1576 1573 1570 1567 1565 1563 1561 1559 1557 1556 1554 1553 1552 1550 1549 1548 1546 1545 1544 1543 1542 1541 1541 1540 1540 1539 1539 1539
1537 1536 1539 1538 1533 1546 1558 1556 1557 1561 1563 1564 1564 1568 1572 1582 1589 1590 1586 1582 1580 1576 1573 1570 1567 1565 1563 1562 1560 1558 1556 1554 1553 1551 1550 1548 1547 1546 1544 1543 1542 1541 1540 1539 1538 1538 1537 1536 1536
1537 1537 1541 1539 1542 1553 1562 1564 1564 1566 1567 1566 1571 1577 1585 1595 1595 1593 1589 1585 1582 1578 1574 1571 1569 1566 1563 1561 1559 1557 1556 1554 1553 1551 1549 1548 1546 1545 1543 1542 1540 1539 1537 1536 1536 1535 1534 1534 1534
1538 1541 1542 1544 1557 1567 1571 1572 1570 1566 1569 1573 1574 1586 1596 1603 1600 1596 1591 1587 1583 1579 1576 1572 1570 1567 1564 1561 1559 1556 1554 1552 1550 1549 1547 1546 1544 1543 1541 1540 1538 1537 1535 1534 1533 1532 1531 1531 1531
1540 1542 1545 1553 1563 1574 1580 1580 1579 1574 1579 1584 1581 1594 1602 1605 1602 1598 1593 1589 1584 1580 1576 1573 1570 1567 1564 1562 1559 1557 1554 1551 1549 1546 1544 1543 1541 1540 1539 1537 1536 1534 1533 1532 1531 1530 1529 1528 1528
1544 1543 1549 1561 1569 1574 1582 1586 1582 1583 1587 1589 1590 1596 1606 1607 1602 1599 1595 1590 1585 1581 1577 1574 1570 1567 1565 1562 1559 1557 1554 1552 1549 1546 1544 1541 1539 1537 1536 1534 1533 1532 1530 1529 1528 1527 1526 1526 1525
1547 1549 1557 1564 1571 1580 1588 1590 1589 1590 1592 1596 1597 1599 1607 1607 1604 1602 1597 1592 1586 1582 1578 1574 1571 1568 1565 1562 1559 1556 1554 1551 1548 1545 1543 1540 1538 1535 1533 1531 1529 1528 1527 1526 1525 1524 1523 1523 1522
1549 1554 1561 1566 1575 1587 1594 1595 1599 1599 1602 1604 1602 1605 1611 1610 1607 1603 1598 1592 1587 1583 1579 1576 1573 1569 1566 1563 1559 1556 1553 1550 1547 1544 1541 1538 1536 1533 1531 1528 1526 1524 1523 1522 1521 1521 1520 1519 1519
1552 1558 1567 1571 1577 1590 1595 1598 1603 1610 1609 1608 1610 1612 1614 1611 1607 1602 1596 1590 1587 1584 1581 1577 1574 1571 1568 1564 1560 1556 1552 1549 1545 1542 1539 1536 1533 1530 1528 1525 1523 1521 1519 1518 1517 1517 1516 1515 1515
1558 1564 1577 1580 1582 1591 1598 1601 1605 1612 1612 1613 1614 1614 1613 1610 1605 1598 1594 1591 1588 1585 1582 1579 1575 1572 1568 1564 1560 1556 1552 1548 1545 1541 1537 1534 1530 1528 1525 1522 1520 1518 1515 1514 1513 1512 1512 1511 1511
1568 1575 1585 1591 1592 1596 1600 1606 1609 1611 1616 1618 1618 1617 1614 1609 1604 1601 1598 1596 1592 1589 1585 1580 1577 1573 1569 1564 1560 1556 1552 1547 1543 1539 1535 1532 1528 1525 1522 1519 1517 1514 1512 1510 1508 1507 1507 1507 1506
1577 1588 1589 1595 1598 1600 1602 1608 1613 1616 1621 1622 1620 1618 1615 1610 1607 1604 1601 1598 1594 1590 1586 1581 1577 1573 1568 1564 1559 1555 1550 1546 1541 1537 1533 1529 1525 1522 1518 1515 1512 1510 1508 1506 1504 1503 1502 1502 1501
1582 1596 1598 1602 1604 1606 1607 1612 1616 1623 1625 1624 1622 1619 1616 1613 1610 1607 1604 1600 1595 1590 1586 1581 1577 1571 1566 1562 1557 1552 1547 1543 1539 1534 1530 1526 1521 1518 1514 1511 1508 1506 1503 1502 1500 1499 1497 1496 1496
1587 1594 1600 1605 1605 1609 1610 1616 1619 1627 1626 1625 1622 1619 1617 1614 1611 1607 1603 1599 1594 1590 1585 1580 1575 1570 1564 1559 1554 1549 1545 1540 1536 1531 1527 1522 1518 1514 1510 1506 1503 1501 1498 1496 1495 1494 1493 1492 1491
1588 1594 1601 1606 1607 1611 1611 1620 1626 1628 1627 1625 1622 1620 1618 1615 1611 1608 1604 1600 1595 1590 1585 1579 1573 1567 1562 1556 1551 1546 1541 1537 1533 1528 1524 1519 1515 1510 1506 1502 1498 1495 1492 1490 1489 1488 1487 1486 1485
1586 1586 1593 1606 1608 1611 1611 1622 1629 1629 1627 1624 1623 1621 1619 1616 1613 1609 1605 1600 1595 1589 1583 1577 1571 1565 1559 1554 1548 1543 1538 1534 1529 1525 1520 1516 1511 1506 1502 1498 1494 1490 1487 1485 1483 1482 1480 1479 1479
1580 1580 1589 1605 1610 1610 1610 1621 1629 1629 1627 1624 1623 1622 1620 1617 1614 1610 1605 1600 1594 1588 1582 1576 1570 1563 1557 1551 1545 1540 1535 1531 1526 1521 1516 1511 1506 1502 1498 1494 1490 1485 1482 1479 1477 1476 1474 1472 1472
1577 1580 1589 1599 1610 1610 1612 1621 1628 1628 1627 1625 1624 1622 1620 1617 1614 1610 1606 1600 1594 1588 1582 1575 1568 1562 1555 1548 1542 1537 1532 1527 1522 1518 1513 1508 1503 1498 1494 1490 1486 1481 1477 1474 1472 1469 1467 1466 1465
1581 1584 1592 1605 1613 1613 1616 1621 1626 1628 1626 1625 1624 1622 1620 1618 1615 1610 1605 1599 1592 1586 1580 1573 1566 1560 1553 1545 1538 1532 1527 1522 1518 1514 1510 1505 1500 1495 1490 1486 1481 1477 1473 1469 1466 1463 1460 1460 1460
1584 1587 1596 1610 1615 1614 1619 1623 1626 1627 1627 1626 1625 1623 1620 1617 1613 1609 1604 1598 1592 1586 1579 1572 1565 1559 1552 1545 1539 1532 1526 1520 1516 1510 1505 1501 1497 1492 1487 1483 1478 1474 1469 1465 1462 1458 1455 1453 1455
1588 1588 1591 1602 1615 1617 1618 1620 1623 1625 1626 1625 1624 1623 1620 1616 1612 1608 1603 1597 1591 1585 1578 1571 1564 1558 1551 1544 1537 1530 1524 1518 1512 1506 1501 1497 1492 1488 1484 1480 1475 1470 1466 1462 1458 1454 1451 1448 1447
1588 1595 1595 1601 1603 1602 1611 1591 1610 1619 1622 1622 1622 1620 1618 1615 1611 1607 1602 1596 1590 1583 1577 1570 1563 1556 1549 1542 1535 1529 1523 1516 1511 1505 1499 1494 1489 1484 1480 1476 1472 1467 1462 1458 1454 1451 1447 1444 1441
1594 1598 1596 1598 1595 1597 1603 1599 1597 1616 1617 1619 1619 1618 1617 1614 1610 1605 1600 1594 1588 1582 1575 1568 1561 1554 1547 1541 1534 1528 1522 1516 1510 1503 1497 1490 1485 1480 1476 1472 1467 1462 1458 1453 1450 1446 1442 1439 1436
1597 1597 1597 1596 1592 1586 1587 1593 1585 1609 1614 1618 1618 1617 1615 1612 1608 1604 1599 1593 1587 1581 1574 1567 1560 1553 1546 1539 1533 1526 1520 1514 1507 1500 1494 1487 1481 1476 1472 1467 1462 1458 1453 1449 1444 1440 1436 1433 1430
1594 1588 1580 1576 1575 1573 1594 1592 1595 1613 1618 1619 1619 1617 1614 1611 1607 1602 1597 1592 1585 1579 1572 1565 1558 1550 1544 1537 1530 1524 1518 1512 1505 1499 1492 1485 1479 1473 1467 1463 1458 1453 1449 1444 1439 1434 1429 1426 1423
1599 1595 1592 1588 1574 1571 1590 1588 1605 1616 1619 1620 1619 1616 1613 1609 1605 1601 1596 1590 1584 1577 1570 1563 1555 1548 1541 1534 1528 1522 1516 1509 1503 1497 1491 1484 1478 1471 1465 1460 1455 1450 1445 1440 1435 1429 1423 1419 1416
1600 1600 1604 1598 1591 1591 1579 1598 1613 1617 1618 1618 1616 1614 1611 1607 1603 1600 1595 1589 1582 1575 1568 1561 1553 1546 1539 1532 1526 1519 1513 1506 1500 1494 1488 1482 1475 1469 1462 1457 1451 1446 1441 1436 1431 1425 1419 1414 1410
1607 1606 1604 1598 1593 1581 1569 1585 1596 1613 1615 1616 1614 1612 1608 1605 1602 1598 1593 1587 1581 1574 1566 1559 1552 1545 1538 1531 1524 1517 1511 1504 1498 1492 1485 1479 1472 1466 1459 1453 1448 1443 1438 1433 1428 1423 1416 1409 1404
1607 1608 1605 1604 1601 1593 1582 1583 1607 1614 1616 1615 1613 1610 1607 1604 1600 1596 1591 1585 1579 1572 1564 1557 1549 1543 1536 1529 1522 1516 1509 1503 1496 1490 1483 1477 1470 1463 1457 1450 1445 1440 1435 1430 1425 1421 1414 1407 1401
1609 1607 1606 1603 1596 1600 1595 1596 1613 1615 1615 1614 1611 1608 1605 1603 1599 1594 1589 1583 1576 1569 1562 1554 1548 1541 1534 1527 1521 1515 1508 1501 1495 1488 1481 1475 1468 1461 1455 1448 1442 1437 1432 1427 1422 1418 1412 1405 1399